DW9572 Weather Reports


time (UTC)temp
C
wind
direction
speed
KPH
gust
KPH
rain 1hr
cm
rain 24hr
cm
rain mn
cm
humidity
%
barometer
mb
20260901063032 22 266 11.3 16.1 0.00 0.00 0.00 35 1005.4
20260901061531 23 186 3.2 9.7 0.00 0.00 0.00 33 1005.4
20260901060013 23 302 8.0 14.5 0.00 0.00 0.00 33 1005.5
20260901054515 23 291 8.0 14.5 0.00 0.00 0.00 33 1005.6
20260901053128 23 296 9.7 17.7 0.00 0.00 0.00 32 1005.6
20260901051556 25 338 11.3 24.1 0.00 0.00 0.00 29 1005.7
20260901050054 26 345 17.7 27.4 0.00 0.00 0.00 28 1005.6
20260901044554 26 335 24.1 30.6 0.00 0.00 0.00 28 1005.4
20260901043040 26 339 25.7 33.8 0.00 0.00 0.00 28 1005.6
20260901041519 25 347 25.7 38.6 0.00 0.00 0.00 29 1005.8
20260901040017 25 356 20.9 25.7 0.00 0.00 0.00 29 1005.6
20260901034606 25 340 22.5 30.6 0.00 0.00 0.00 29 1005.6
20260901033058 25 346 14.5 25.7 0.00 0.00 0.00 29 1005.8
20260901031547 25 336 17.7 22.5 0.00 0.00 0.00 29 1005.6
20260901030041 26 343 20.9 27.4 0.00 0.00 0.00 28 1005.7
20260901024525 26 345 19.3 24.1 0.00 0.00 0.00 28 1005.7
20260901023021 25 340 17.7 24.1 0.00 0.00 0.00 29 1005.6
20260901021502 26 350 16.1 20.9 0.00 0.00 0.00 27 1005.8
20260901020114 27 354 16.1 22.5 0.00 0.00 0.00 25 1005.9
20260901014544 28 356 16.1 22.5 0.00 0.00 0.00 24 1006.0
20260901013044 29 27 14.5 22.5 0.00 0.00 0.00 23 1006.1
20260901011533 29 18 9.7 20.9 0.00 0.00 0.00 23 1006.2
20260901010021 29 30 16.1 24.1 0.00 0.00 0.00 23 1006.4
20260901004501 30 43 17.7 24.1 0.00 0.00 0.00 23 1006.6
20260901003123 30 8 14.5 20.9 0.00 0.00 0.00 22 1006.7
20260901001555 30 21 14.5 22.5 0.00 0.00 0.00 23 1007.0
20260901000044 30 82 9.7 22.5 0.00 0.00 0.00 22 1007.3
20260831234517 29 8 11.3 22.5 0.00 0.00 0.00 23 1007.4
20260831233032 29 60 19.3 27.4 0.00 0.00 0.00 23 1007.7
20260831231602 29 69 11.3 22.5 0.00 0.00 0.00 23 1008.0
20260831230053 29 12 16.1 24.1 0.00 0.00 0.00 24 1008.2
20260831224534 28 55 11.3 24.1 0.00 0.00 0.00 24 1008.5
20260831223034 28 58 14.5 25.7 0.00 0.00 0.00 25 1008.6
20260831221512 28 33 12.9 27.4 0.00 0.00 0.00 25 1008.9
20260831220009 28 37 19.3 24.1 0.00 0.00 0.00 24 1009.2
20260831214550 28 92 17.7 24.1 0.00 0.00 0.00 24 1009.6
20260831213045 27 90 11.3 25.7 0.00 0.00 0.00 25 1009.9
20260831211526 27 29 11.3 27.4 0.00 0.00 0.00 26 1010.0
20260831210023 26 87 22.5 27.4 0.00 0.00 0.00 26 1010.2
20260831204505 26 21 12.9 20.9 0.00 0.00 0.00 27 1010.5
20260831203059 26 87 22.5 29.0 0.00 0.00 0.00 28 1010.8
20260831201547 26 96 20.9 32.2 0.00 0.00 0.00 28 1011.0
20260831200042 26 101 22.5 32.2 0.00 0.00 0.00 29 1011.3
20260831194532 25 104 11.3 22.5 0.00 0.00 0.00 30 1011.5
20260831193012 25 95 12.9 27.4 0.00 0.00 0.00 31 1011.7
20260831191553 25 1 12.9 25.7 0.00 0.00 0.00 31 1012.1
20260831190058 24 51 12.9 27.4 0.00 0.00 0.00 32 1012.4
20260831184542 24 90 11.3 27.4 0.00 0.00 0.00 33 1012.6
20260831183033 23 89 17.7 24.1 0.00 0.00 0.00 32 1012.9
20260831181515 23 52 17.7 25.7 0.00 0.00 0.00 33 1013.0
20260831180005 22 45 17.7 25.7 0.00 0.00 0.00 36 1013.2
20260831174602 22 86 17.7 27.4 0.00 0.00 0.00 37 1013.2
20260831173059 22 53 17.7 22.5 0.00 0.00 0.00 40 1013.4
20260831171545 21 39 14.5 24.1 0.00 0.00 0.00 41 1013.7
20260831170042 21 69 19.3 22.5 0.00 0.00 0.00 44 1013.8
20260831164539 20 32 12.9 17.7 0.00 0.00 0.00 46 1014.0
20260831163037 18 85 9.7 14.5 0.00 0.00 0.00 50 1014.1
20260831161529 17 91 8.0 12.9 0.00 0.00 0.00 51 1014.3
20260831160030 17 98 4.8 8.0 0.00 0.00 0.00 53 1014.5
20260831154513 16 89 4.8 9.7 0.00 0.00 0.00 55 1014.6
20260831153003 15 93 4.8 9.7 0.00 0.00 0.00 55 1014.7
20260831151556 16 112 0.0 4.8 0.00 0.00 0.00 58 1014.7
20260831150048 15 190 1.6 3.2 0.00 0.00 0.00 61 1014.6
20260831144532 15 222 0.0 1.6 0.00 0.00 0.00 61 1014.4
20260831143033 15 233 3.2 4.8 0.00 0.00 0.00 62 1014.4
20260831141502 14 345 0.0 1.6 0.00 0.00 0.00 60 1014.1
20260831140100 13 345 0.0 4.8 0.00 0.00 0.00 61 1014.2
20260831134540 12 354 3.2 6.4 0.00 0.00 0.00 65 1014.2
20260831133035 12 227 3.2 4.8 0.00 0.00 0.00 61 1014.2
20260831131517 12 15 0.0 1.6 0.00 0.00 0.00 63 1014.2
20260831130020 12 14 3.2 6.4 0.00 0.00 0.00 64 1014.1
20260831124558 13 336 0.0 14.5 0.00 0.00 0.00 57 1014.0
20260831123057 13 353 12.9 14.5 0.00 0.00 0.00 59 1013.9
20260831121539 15 64 1.6 14.5 0.00 0.00 0.00 56 1014.0
20260831120039 14 4 12.9 19.3 0.00 0.00 0.00 59 1013.7
20260831114518 13 354 14.5 16.1 0.00 0.00 0.00 64 1013.6
20260831113015 13 345 4.8 14.5 0.00 0.00 0.00 60 1013.8
20260831111611 13 18 4.8 6.4 0.00 0.00 0.00 59 1013.8
20260831110134 13 16 4.8 6.4 0.00 0.00 0.00 56 1013.8
20260831104546 13 152 1.6 3.2 0.00 0.00 0.00 60 1013.8
20260831103049 12 150 1.6 3.2 0.00 0.00 0.00 62 1013.8
20260831101546 12 150 0.0 0.0 0.00 0.00 0.00 62 1013.9
20260831100046 12 151 0.0 0.0 0.00 0.00 0.00 61 1013.7
20260831094542 12 151 0.0 1.6 0.00 0.00 0.00 62 1014.0
20260831093041 12 151 0.0 1.6 0.00 0.00 0.00 62 1014.2
20260831091549 13 150 0.0 3.2 0.00 0.00 0.00 56 1014.2
20260831090041 13 151 0.0 3.2 0.00 0.00 0.00 58 1014.2
20260831084538 13 151 1.6 3.2 0.00 0.00 0.00 55 1014.3
20260831083027 13 283 1.6 3.2 0.00 0.00 0.00 57 1014.2
20260831081529 13 85 0.0 1.6 0.00 0.00 0.00 57 1014.1
20260831080028 13 85 1.6 1.6 0.00 0.00 0.00 59 1014.2
20260831074537 14 85 0.0 1.6 0.00 0.00 0.00 58 1014.2
20260831073057 15 85 0.0 0.0 0.00 0.00 0.00 56 1014.2
20260831071526 15 79 0.0 0.0 0.00 0.00 0.00 48 1014.2
20260831070031 17 89 4.8 6.4 0.00 0.00 0.00 44 1014.2
20260831064534 17 313 0.0 4.8 0.00 0.00 0.00 45 1014.2